Year,Month,Day,Hour,Minute,Value (Times are PST for temperature in C)
2017,04,25,00,00,9.50
2017,04,25,00,01,9.60
2017,04,25,00,02,9.70
2017,04,25,00,03,9.70
2017,04,25,00,04,9.80
2017,04,25,00,05,9.80
2017,04,25,00,06,9.80
2017,04,25,00,07,9.80
2017,04,25,00,08,9.70
2017,04,25,00,09,9.70
2017,04,25,00,10,9.70
2017,04,25,00,11,9.70
2017,04,25,00,12,9.80
2017,04,25,00,13,9.80
2017,04,25,00,14,9.90
2017,04,25,00,15,10.00
2017,04,25,00,16,10.00
2017,04,25,00,17,10.00
2017,04,25,00,18,10.00
2017,04,25,00,19,10.10
2017,04,25,00,20,10.10
2017,04,25,00,21,10.20
2017,04,25,00,22,10.30
2017,04,25,00,23,10.30
2017,04,25,00,24,10.40
2017,04,25,00,25,10.30
2017,04,25,00,26,10.30
2017,04,25,00,27,10.30
2017,04,25,00,28,10.30
2017,04,25,00,29,10.30
2017,04,25,00,30,10.30
2017,04,25,00,31,10.20
2017,04,25,00,32,10.20
2017,04,25,00,33,10.10
2017,04,25,00,34,10.10
2017,04,25,00,35,10.10
2017,04,25,00,36,10.00
2017,04,25,00,37,9.90
2017,04,25,00,38,9.90
2017,04,25,00,39,9.80
2017,04,25,00,40,9.80
2017,04,25,00,41,9.80
2017,04,25,00,42,9.80
2017,04,25,00,43,9.80
2017,04,25,00,44,9.80
2017,04,25,00,45,9.80
2017,04,25,00,46,9.80
2017,04,25,00,47,9.80
2017,04,25,00,48,9.80
2017,04,25,00,49,9.70
2017,04,25,00,50,9.60
2017,04,25,00,51,9.50
2017,04,25,00,52,9.40
2017,04,25,00,53,9.40
2017,04,25,00,54,9.40
2017,04,25,00,55,9.30
2017,04,25,00,56,9.30
2017,04,25,00,57,9.30
2017,04,25,00,58,9.30
2017,04,25,00,59,9.20
2017,04,25,01,00,9.20
2017,04,25,01,01,9.20
2017,04,25,01,02,9.20
2017,04,25,01,03,9.20
2017,04,25,01,04,9.10
2017,04,25,01,05,9.10
2017,04,25,01,06,9.10
2017,04,25,01,07,9.10
2017,04,25,01,08,9.10
2017,04,25,01,09,9.00
2017,04,25,01,10,9.00
2017,04,25,01,11,8.90
2017,04,25,01,12,8.90
2017,04,25,01,13,8.90
2017,04,25,01,14,8.80
2017,04,25,01,15,8.80
2017,04,25,01,16,8.80
2017,04,25,01,17,8.80
2017,04,25,01,18,8.80
2017,04,25,01,19,8.80
2017,04,25,01,20,8.80
2017,04,25,01,21,8.80
2017,04,25,01,22,8.80
2017,04,25,01,23,8.80
2017,04,25,01,24,8.70
2017,04,25,01,25,8.70
2017,04,25,01,26,8.70
2017,04,25,01,27,8.70
2017,04,25,01,28,8.70
2017,04,25,01,29,8.70
2017,04,25,01,30,8.70
2017,04,25,01,31,8.70
2017,04,25,01,32,8.60
2017,04,25,01,33,8.60
2017,04,25,01,34,8.60
2017,04,25,01,35,8.60
2017,04,25,01,36,8.60
2017,04,25,01,37,8.60
2017,04,25,01,38,8.60
2017,04,25,01,39,8.50
2017,04,25,01,40,8.50
2017,04,25,01,41,8.50
2017,04,25,01,42,8.40
2017,04,25,01,43,8.40
2017,04,25,01,44,8.30
2017,04,25,01,45,8.20
2017,04,25,01,46,8.20
2017,04,25,01,47,8.20
2017,04,25,01,48,8.10
2017,04,25,01,49,8.10
2017,04,25,01,50,8.00
2017,04,25,01,51,8.00
2017,04,25,01,52,7.90
2017,04,25,01,53,7.90
2017,04,25,01,54,7.80
2017,04,25,01,55,7.80
2017,04,25,01,56,7.80
2017,04,25,01,57,7.80
2017,04,25,01,58,7.80
2017,04,25,01,59,7.80
2017,04,25,02,00,7.80
2017,04,25,02,01,7.80
2017,04,25,02,02,7.80
2017,04,25,02,03,7.80
2017,04,25,02,04,7.80
2017,04,25,02,05,7.70
2017,04,25,02,06,7.70
2017,04,25,02,07,7.60
2017,04,25,02,08,7.60
2017,04,25,02,09,7.60
2017,04,25,02,10,7.60
2017,04,25,02,11,7.60
2017,04,25,02,12,7.60
2017,04,25,02,13,7.60
2017,04,25,02,14,7.60
2017,04,25,02,15,7.60
2017,04,25,02,16,7.60
2017,04,25,02,17,7.60
2017,04,25,02,18,7.60
2017,04,25,02,19,7.60
2017,04,25,02,20,7.50
2017,04,25,02,21,7.50
2017,04,25,02,22,7.50
2017,04,25,02,23,7.50
2017,04,25,02,24,7.40
2017,04,25,02,25,7.40
2017,04,25,02,26,7.40
2017,04,25,02,27,7.40
2017,04,25,02,28,7.40
2017,04,25,02,29,7.30
2017,04,25,02,30,7.30
2017,04,25,02,31,7.20
2017,04,25,02,32,7.20
2017,04,25,02,33,7.10
2017,04,25,02,34,7.10
2017,04,25,02,35,7.10
2017,04,25,02,36,7.00
2017,04,25,02,37,7.00
2017,04,25,02,38,7.00
2017,04,25,02,39,7.00
2017,04,25,02,40,7.00
2017,04,25,02,41,7.10
2017,04,25,02,42,7.10
2017,04,25,02,43,7.20
2017,04,25,02,44,7.20
2017,04,25,02,45,7.20
2017,04,25,02,46,7.30
2017,04,25,02,47,7.30
2017,04,25,02,48,7.30
2017,04,25,02,49,7.30
2017,04,25,02,50,7.30
2017,04,25,02,51,7.20
2017,04,25,02,52,7.20
2017,04,25,02,53,7.20
2017,04,25,02,54,7.20
2017,04,25,02,55,7.10
2017,04,25,02,56,7.10
2017,04,25,02,57,7.10
2017,04,25,02,58,7.00
2017,04,25,02,59,7.10
2017,04,25,03,00,7.10
2017,04,25,03,01,7.20
2017,04,25,03,02,7.30
2017,04,25,03,03,7.30
2017,04,25,03,04,7.30
2017,04,25,03,05,7.30
2017,04,25,03,06,7.20
2017,04,25,03,07,7.30
2017,04,25,03,08,7.30
2017,04,25,03,09,7.30
2017,04,25,03,10,7.20
2017,04,25,03,11,7.10
2017,04,25,03,12,7.10
2017,04,25,03,13,7.00
2017,04,25,03,14,7.00
2017,04,25,03,15,7.00
2017,04,25,03,16,6.90
2017,04,25,03,17,6.90
2017,04,25,03,18,6.90
2017,04,25,03,19,6.90
2017,04,25,03,20,6.90
2017,04,25,03,21,6.90
2017,04,25,03,22,6.90
2017,04,25,03,23,7.00
2017,04,25,03,24,6.90
2017,04,25,03,25,6.90
2017,04,25,03,26,6.90
2017,04,25,03,27,6.80
2017,04,25,03,28,6.80
2017,04,25,03,29,6.80
2017,04,25,03,30,6.70
2017,04,25,03,31,6.70
2017,04,25,03,32,6.70
2017,04,25,03,33,6.70
2017,04,25,03,34,6.70
2017,04,25,03,35,6.70
2017,04,25,03,36,6.70
2017,04,25,03,37,6.70
2017,04,25,03,38,6.70
2017,04,25,03,39,6.70
2017,04,25,03,40,6.70
2017,04,25,03,41,6.70
2017,04,25,03,42,6.70
2017,04,25,03,43,6.60
2017,04,25,03,44,6.60
2017,04,25,03,45,6.60
2017,04,25,03,46,6.50
2017,04,25,03,47,6.50
2017,04,25,03,48,6.50
2017,04,25,03,49,6.60
2017,04,25,03,50,6.60
2017,04,25,03,51,6.70
2017,04,25,03,52,6.60
2017,04,25,03,53,6.50
2017,04,25,03,54,6.50
2017,04,25,03,55,6.40
2017,04,25,03,56,6.40
2017,04,25,03,57,6.30
2017,04,25,03,58,6.30
2017,04,25,03,59,6.30
2017,04,25,04,00,6.30
2017,04,25,04,01,6.30
2017,04,25,04,02,6.30
2017,04,25,04,03,6.30
2017,04,25,04,04,6.40
2017,04,25,04,05,6.50
2017,04,25,04,06,6.60
2017,04,25,04,07,6.60
2017,04,25,04,08,6.50
2017,04,25,04,09,6.40
2017,04,25,04,10,6.40
2017,04,25,04,11,6.30
2017,04,25,04,12,6.30
2017,04,25,04,13,6.30
2017,04,25,04,14,6.30
2017,04,25,04,15,6.30
2017,04,25,04,16,6.30
2017,04,25,04,17,6.30
2017,04,25,04,18,6.30
2017,04,25,04,19,6.30
2017,04,25,04,20,6.30
2017,04,25,04,21,6.40
2017,04,25,04,22,6.40
2017,04,25,04,23,6.40
2017,04,25,04,24,6.30
2017,04,25,04,25,6.30
2017,04,25,04,26,6.30
2017,04,25,04,27,6.30
2017,04,25,04,28,6.20
2017,04,25,04,29,6.20
2017,04,25,04,30,6.20
2017,04,25,04,31,6.20
2017,04,25,04,32,6.20
2017,04,25,04,33,6.20
2017,04,25,04,34,6.20
2017,04,25,04,35,6.20
2017,04,25,04,36,6.30
2017,04,25,04,37,6.30
2017,04,25,04,38,6.40
2017,04,25,04,39,6.40
2017,04,25,04,40,6.50
2017,04,25,04,41,6.60
2017,04,25,04,42,6.70
2017,04,25,04,43,6.80
2017,04,25,04,44,6.80
2017,04,25,04,45,6.80
2017,04,25,04,46,6.90
2017,04,25,04,47,7.00
2017,04,25,04,48,7.30
2017,04,25,04,49,7.50
2017,04,25,04,50,7.80
2017,04,25,04,51,8.00
2017,04,25,04,52,8.20
2017,04,25,04,53,8.40
2017,04,25,04,54,8.50
2017,04,25,04,55,8.60
2017,04,25,04,56,8.70
2017,04,25,04,57,8.70
2017,04,25,04,58,8.70
2017,04,25,04,59,8.70
2017,04,25,05,00,8.70
2017,04,25,05,01,8.80
2017,04,25,05,02,8.80
2017,04,25,05,03,8.80
2017,04,25,05,04,8.80
2017,04,25,05,05,8.80
2017,04,25,05,06,8.80
2017,04,25,05,07,8.80
2017,04,25,05,08,8.80
2017,04,25,05,09,8.80
2017,04,25,05,10,8.70
2017,04,25,05,11,8.70
2017,04,25,05,12,8.70
2017,04,25,05,13,8.70
2017,04,25,05,14,8.70
2017,04,25,05,15,8.60
2017,04,25,05,16,8.60
2017,04,25,05,17,8.60
2017,04,25,05,18,8.60
2017,04,25,05,19,8.70
2017,04,25,05,20,8.70
2017,04,25,05,21,8.70
2017,04,25,05,22,8.70
2017,04,25,05,23,8.80
2017,04,25,05,24,8.90
2017,04,25,05,25,9.00
2017,04,25,05,26,9.00
2017,04,25,05,27,9.10
2017,04,25,05,28,9.10
2017,04,25,05,29,9.20
2017,04,25,05,30,9.20
2017,04,25,05,31,9.20
2017,04,25,05,32,9.30
2017,04,25,05,33,9.30
2017,04,25,05,34,9.30
2017,04,25,05,35,9.30
2017,04,25,05,36,9.40
2017,04,25,05,37,9.40
2017,04,25,05,38,9.40
2017,04,25,05,39,9.40
2017,04,25,05,40,9.50
2017,04,25,05,41,9.50
2017,04,25,05,42,9.50
2017,04,25,05,43,9.50
2017,04,25,05,44,9.60
2017,04,25,05,45,9.60
2017,04,25,05,46,9.60
2017,04,25,05,47,9.60
2017,04,25,05,48,9.60
2017,04,25,05,49,9.60
2017,04,25,05,50,9.70
2017,04,25,05,51,9.70
2017,04,25,05,52,9.70
2017,04,25,05,53,9.70
2017,04,25,05,54,9.70
2017,04,25,05,55,9.70
2017,04,25,05,56,9.70
2017,04,25,05,57,9.80
2017,04,25,05,58,9.80
2017,04,25,05,59,9.80
2017,04,25,06,00,9.80
2017,04,25,06,01,9.80
2017,04,25,06,02,9.80
2017,04,25,06,03,9.90
2017,04,25,06,04,9.90
2017,04,25,06,05,9.90
2017,04,25,06,06,9.90
2017,04,25,06,07,9.90
2017,04,25,06,08,10.00
2017,04,25,06,09,9.90
2017,04,25,06,10,9.90
2017,04,25,06,11,9.90
2017,04,25,06,12,9.90
2017,04,25,06,13,9.90
2017,04,25,06,14,9.90
2017,04,25,06,15,9.90
2017,04,25,06,16,10.00
2017,04,25,06,17,10.00
2017,04,25,06,18,10.00
2017,04,25,06,19,10.00
2017,04,25,06,20,10.00
2017,04,25,06,21,10.10
2017,04,25,06,22,10.10
2017,04,25,06,23,10.10
2017,04,25,06,24,10.10
2017,04,25,06,25,10.10
2017,04,25,06,26,10.10
2017,04,25,06,27,10.10
2017,04,25,06,28,10.10
2017,04,25,06,29,10.10
2017,04,25,06,30,10.10
2017,04,25,06,31,10.10
2017,04,25,06,32,10.10
2017,04,25,06,33,10.10
2017,04,25,06,34,10.10
2017,04,25,06,35,10.00
2017,04,25,06,36,10.00
2017,04,25,06,37,10.00
2017,04,25,06,38,10.00
2017,04,25,06,39,10.00
2017,04,25,06,40,10.00
2017,04,25,06,41,9.90
2017,04,25,06,42,9.90
2017,04,25,06,43,10.00
2017,04,25,06,44,10.00
2017,04,25,06,45,10.00
2017,04,25,06,46,9.90
2017,04,25,06,47,9.90
2017,04,25,06,48,9.90
2017,04,25,06,49,9.90
2017,04,25,06,50,9.90
2017,04,25,06,51,9.90
2017,04,25,06,52,9.90
2017,04,25,06,53,10.00
2017,04,25,06,54,10.00
2017,04,25,06,55,10.00
2017,04,25,06,56,10.10
2017,04,25,06,57,10.10
2017,04,25,06,58,10.10
2017,04,25,06,59,10.10
2017,04,25,07,00,10.10
2017,04,25,07,01,10.00
2017,04,25,07,02,10.00
2017,04,25,07,03,10.00
2017,04,25,07,04,9.90
2017,04,25,07,05,9.90
2017,04,25,07,06,9.90
2017,04,25,07,07,9.90
2017,04,25,07,08,9.80
2017,04,25,07,09,9.80
2017,04,25,07,10,9.80
2017,04,25,07,11,9.80
2017,04,25,07,12,9.80
2017,04,25,07,13,9.70
2017,04,25,07,14,9.70
2017,04,25,07,15,9.70
2017,04,25,07,16,9.70
2017,04,25,07,17,9.70
2017,04,25,07,18,9.70
2017,04,25,07,19,9.60
2017,04,25,07,20,9.60
2017,04,25,07,21,9.60
2017,04,25,07,22,9.60
2017,04,25,07,23,9.60
2017,04,25,07,24,9.60
2017,04,25,07,25,9.60
2017,04,25,07,26,9.60
2017,04,25,07,27,9.60
2017,04,25,07,28,9.70
2017,04,25,07,29,9.70
2017,04,25,07,30,9.70
2017,04,25,07,31,9.70
2017,04,25,07,32,9.70
2017,04,25,07,33,9.70
2017,04,25,07,34,9.70
2017,04,25,07,35,9.70
2017,04,25,07,36,9.70
2017,04,25,07,37,9.70
2017,04,25,07,38,9.70
2017,04,25,07,39,9.70
2017,04,25,07,40,9.70
2017,04,25,07,41,9.70
2017,04,25,07,42,9.70
2017,04,25,07,43,9.70
2017,04,25,07,44,9.80
2017,04,25,07,45,9.80
2017,04,25,07,46,9.80
2017,04,25,07,47,9.80
2017,04,25,07,48,9.90
2017,04,25,07,49,9.90
2017,04,25,07,50,9.90
2017,04,25,07,51,9.90
2017,04,25,07,52,9.90
2017,04,25,07,53,9.90
2017,04,25,07,54,10.00
2017,04,25,07,55,10.00
2017,04,25,07,56,10.00
2017,04,25,07,57,10.00
2017,04,25,07,58,10.00
2017,04,25,07,59,10.10
2017,04,25,08,00,10.10
2017,04,25,08,01,10.10
2017,04,25,08,02,10.10
2017,04,25,08,03,10.10
2017,04,25,08,04,10.10
2017,04,25,08,05,10.10
2017,04,25,08,06,10.10
2017,04,25,08,07,10.10
2017,04,25,08,08,10.10
2017,04,25,08,09,10.10
2017,04,25,08,10,10.20
2017,04,25,08,11,10.20
2017,04,25,08,12,10.20
2017,04,25,08,13,10.20
2017,04,25,08,14,10.20
2017,04,25,08,15,10.30
2017,04,25,08,16,10.30
2017,04,25,08,17,10.30
2017,04,25,08,18,10.30
2017,04,25,08,19,10.30
2017,04,25,08,20,10.30
2017,04,25,08,21,10.30
2017,04,25,08,22,10.30
2017,04,25,08,23,10.40
2017,04,25,08,24,10.40
2017,04,25,08,25,10.40
2017,04,25,08,26,10.40
2017,04,25,08,27,10.40
2017,04,25,08,28,10.40
2017,04,25,08,29,10.40
2017,04,25,08,30,10.50
2017,04,25,08,31,10.50
2017,04,25,08,32,10.50
2017,04,25,08,33,10.50
2017,04,25,08,34,10.60
2017,04,25,08,35,10.60
2017,04,25,08,36,10.60
2017,04,25,08,37,10.60
2017,04,25,08,38,10.60
2017,04,25,08,39,10.70
2017,04,25,08,40,10.70
2017,04,25,08,41,10.70
2017,04,25,08,42,10.70
2017,04,25,08,43,10.60
2017,04,25,08,44,10.60
2017,04,25,08,45,10.60
2017,04,25,08,46,10.60
2017,04,25,08,47,10.60
2017,04,25,08,48,10.60
2017,04,25,08,49,10.60
2017,04,25,08,50,10.60
2017,04,25,08,51,10.60
2017,04,25,08,52,10.70
2017,04,25,08,53,10.70
2017,04,25,08,54,10.70
2017,04,25,08,55,10.70
2017,04,25,08,56,10.80
2017,04,25,08,57,10.80
2017,04,25,08,58,10.80
2017,04,25,08,59,10.80
2017,04,25,09,00,10.80
2017,04,25,09,01,10.80
2017,04,25,09,02,10.80
2017,04,25,09,03,10.80
2017,04,25,09,04,10.80
2017,04,25,09,05,10.80
2017,04,25,09,06,10.80
2017,04,25,09,07,10.80
2017,04,25,09,08,10.80
2017,04,25,09,09,10.80
2017,04,25,09,10,10.80
2017,04,25,09,11,10.80
2017,04,25,09,12,10.80
2017,04,25,09,13,10.80
2017,04,25,09,14,10.70
2017,04,25,09,15,10.70
2017,04,25,09,16,10.70
2017,04,25,09,17,10.70
2017,04,25,09,18,10.70
2017,04,25,09,19,10.70
2017,04,25,09,20,10.70
2017,04,25,09,21,10.70
2017,04,25,09,22,10.70
2017,04,25,09,23,10.70
2017,04,25,09,24,10.80
2017,04,25,09,25,10.80
2017,04,25,09,26,10.80
2017,04,25,09,27,10.90
2017,04,25,09,28,11.00
2017,04,25,09,29,11.00
2017,04,25,09,30,11.10
2017,04,25,09,31,11.20
2017,04,25,09,32,11.20
2017,04,25,09,33,11.30
2017,04,25,09,34,11.40
2017,04,25,09,35,11.50
2017,04,25,09,36,11.60
2017,04,25,09,37,11.70
2017,04,25,09,38,11.80
2017,04,25,09,39,11.90
2017,04,25,09,40,12.00
2017,04,25,09,41,12.10
2017,04,25,09,42,12.20
2017,04,25,09,43,12.30
2017,04,25,09,44,12.40
2017,04,25,09,45,12.40
2017,04,25,09,46,12.50
2017,04,25,09,47,12.50
2017,04,25,09,48,12.50
2017,04,25,09,49,12.50
2017,04,25,09,50,12.50
2017,04,25,09,51,12.50
2017,04,25,09,52,12.40
2017,04,25,09,53,12.50
2017,04,25,09,54,12.50
2017,04,25,09,55,12.50
2017,04,25,09,56,12.50
2017,04,25,09,57,12.50
2017,04,25,09,58,12.40
2017,04,25,09,59,12.40
2017,04,25,10,00,12.40
2017,04,25,10,01,12.40
2017,04,25,10,02,12.30
2017,04,25,10,03,12.30
2017,04,25,10,04,12.30
2017,04,25,10,05,12.20
2017,04,25,10,06,12.10
2017,04,25,10,07,12.00
2017,04,25,10,08,12.00
2017,04,25,10,09,12.00
2017,04,25,10,10,12.00
2017,04,25,10,11,12.00
2017,04,25,10,12,12.00
2017,04,25,10,13,12.00
2017,04,25,10,14,12.10
2017,04,25,10,15,12.10
2017,04,25,10,16,12.10
2017,04,25,10,17,12.10
2017,04,25,10,18,12.10
2017,04,25,10,19,12.00
2017,04,25,10,20,11.90
2017,04,25,10,21,11.70
2017,04,25,10,22,11.70
2017,04,25,10,23,11.60
2017,04,25,10,24,11.60
2017,04,25,10,25,11.60
2017,04,25,10,26,11.60
2017,04,25,10,27,11.60
2017,04,25,10,28,11.70
2017,04,25,10,29,11.70
2017,04,25,10,30,11.80
2017,04,25,10,31,11.80
2017,04,25,10,32,11.80
2017,04,25,10,33,11.90
2017,04,25,10,34,11.90
2017,04,25,10,35,11.90
2017,04,25,10,36,11.90
2017,04,25,10,37,12.00
2017,04,25,10,38,12.00
2017,04,25,10,39,12.00
2017,04,25,10,40,11.90
2017,04,25,10,41,11.90
2017,04,25,10,42,11.80
2017,04,25,10,43,11.70
2017,04,25,10,44,11.60
2017,04,25,10,45,11.50
2017,04,25,10,46,11.40
2017,04,25,10,47,11.40
2017,04,25,10,48,11.30
2017,04,25,10,49,11.30
2017,04,25,10,50,11.30
2017,04,25,10,51,11.20
2017,04,25,10,52,11.20
2017,04,25,10,53,11.30
2017,04,25,10,54,11.30
2017,04,25,10,55,11.40
2017,04,25,10,56,11.40
2017,04,25,10,57,11.50
2017,04,25,10,58,11.60
2017,04,25,10,59,11.70
2017,04,25,11,00,11.70
2017,04,25,11,01,11.70
2017,04,25,11,02,11.70
2017,04,25,11,03,11.80
2017,04,25,11,04,11.80
2017,04,25,11,05,11.80
2017,04,25,11,06,11.80
2017,04,25,11,07,11.80
2017,04,25,11,08,11.80
2017,04,25,11,09,11.90
2017,04,25,11,10,11.90
2017,04,25,11,11,11.90
2017,04,25,11,12,12.00
2017,04,25,11,13,12.00
2017,04,25,11,14,12.00
2017,04,25,11,15,11.90
2017,04,25,11,16,11.90
2017,04,25,11,17,11.90
2017,04,25,11,18,12.00
2017,04,25,11,19,12.00
2017,04,25,11,20,12.10
2017,04,25,11,21,12.10
2017,04,25,11,22,12.10
2017,04,25,11,23,12.20
2017,04,25,11,24,12.20
2017,04,25,11,25,12.20
2017,04,25,11,26,12.20
2017,04,25,11,27,12.10
2017,04,25,11,28,12.10
2017,04,25,11,29,12.00
2017,04,25,11,30,12.00
2017,04,25,11,31,12.00
2017,04,25,11,32,11.90
2017,04,25,11,33,11.90
2017,04,25,11,34,11.90
2017,04,25,11,35,11.90
2017,04,25,11,36,11.90
2017,04,25,11,37,11.80
2017,04,25,11,38,11.80
2017,04,25,11,39,11.80
2017,04,25,11,40,11.80
2017,04,25,11,41,11.80
2017,04,25,11,42,11.80
2017,04,25,11,43,11.80
2017,04,25,11,44,11.90
2017,04,25,11,45,11.90
2017,04,25,11,46,11.90
2017,04,25,11,47,11.90
2017,04,25,11,48,11.90
2017,04,25,11,49,11.90
2017,04,25,11,50,11.90
2017,04,25,11,51,11.80
2017,04,25,11,52,11.80
2017,04,25,11,53,11.80
2017,04,25,11,54,11.70
2017,04,25,11,55,11.70
2017,04,25,11,56,11.70
2017,04,25,11,57,11.70
2017,04,25,11,58,11.70
2017,04,25,11,59,11.70
2017,04,25,12,00,11.70
2017,04,25,12,01,11.70
2017,04,25,12,02,11.70
2017,04,25,12,03,11.70
2017,04,25,12,04,11.70
2017,04,25,12,05,11.80
2017,04,25,12,06,11.80
2017,04,25,12,07,11.80
2017,04,25,12,08,11.80
2017,04,25,12,09,11.80
2017,04,25,12,10,11.90
2017,04,25,12,11,11.90
2017,04,25,12,12,11.90
2017,04,25,12,13,11.90
2017,04,25,12,14,11.90
2017,04,25,12,15,11.90
2017,04,25,12,16,11.90
2017,04,25,12,17,11.90
2017,04,25,12,18,11.90
2017,04,25,12,19,11.90
2017,04,25,12,20,11.90
2017,04,25,12,21,11.90
2017,04,25,12,22,11.90
2017,04,25,12,23,11.90
2017,04,25,12,24,11.90
2017,04,25,12,25,11.90
2017,04,25,12,26,11.90
2017,04,25,12,27,11.90
2017,04,25,12,28,11.90
2017,04,25,12,29,11.90
2017,04,25,12,30,11.90
2017,04,25,12,31,11.90
2017,04,25,12,32,11.90
2017,04,25,12,33,11.90
2017,04,25,12,34,11.90
2017,04,25,12,35,11.90
2017,04,25,12,36,11.90
2017,04,25,12,37,11.90
2017,04,25,12,38,11.90
2017,04,25,12,39,11.90
2017,04,25,12,40,11.90
2017,04,25,12,41,11.90
2017,04,25,12,42,11.90
2017,04,25,12,43,12.00
2017,04,25,12,44,12.00
2017,04,25,12,45,12.00
2017,04,25,12,46,12.00
2017,04,25,12,47,12.10
2017,04,25,12,48,12.10
2017,04,25,12,49,12.10
2017,04,25,12,50,12.10
2017,04,25,12,51,12.10
2017,04,25,12,52,12.10
2017,04,25,12,53,12.00
2017,04,25,12,54,12.00
2017,04,25,12,55,12.00
2017,04,25,12,56,12.00
2017,04,25,12,57,12.00
2017,04,25,12,58,12.10
2017,04,25,12,59,12.10
2017,04,25,13,00,12.10
2017,04,25,13,01,12.20
2017,04,25,13,02,12.20
2017,04,25,13,03,12.10
2017,04,25,13,04,12.10
2017,04,25,13,05,12.10
2017,04,25,13,06,12.10
2017,04,25,13,07,12.10
2017,04,25,13,08,12.00
2017,04,25,13,09,12.00
2017,04,25,13,10,12.00
2017,04,25,13,11,12.00
2017,04,25,13,12,12.00
2017,04,25,13,13,11.90
2017,04,25,13,14,12.00
2017,04,25,13,15,12.00
2017,04,25,13,16,12.00
2017,04,25,13,17,12.00
2017,04,25,13,18,12.10
2017,04,25,13,19,12.10
2017,04,25,13,20,12.20
2017,04,25,13,21,12.20
2017,04,25,13,22,12.20
2017,04,25,13,23,12.20
2017,04,25,13,24,12.20
2017,04,25,13,25,12.20
2017,04,25,13,26,12.10
2017,04,25,13,27,12.20
2017,04,25,13,28,12.20
2017,04,25,13,29,12.20
2017,04,25,13,30,12.30
2017,04,25,13,31,12.30
2017,04,25,13,32,12.30
2017,04,25,13,33,12.30
2017,04,25,13,34,12.30
2017,04,25,13,35,12.30
2017,04,25,13,36,12.40
2017,04,25,13,37,12.40
2017,04,25,13,38,12.50
2017,04,25,13,39,12.60
2017,04,25,13,40,12.70
2017,04,25,13,41,12.70
2017,04,25,13,42,12.80
2017,04,25,13,43,12.80
2017,04,25,13,44,12.90
2017,04,25,13,45,13.00
2017,04,25,13,46,13.10
2017,04,25,13,47,13.30
2017,04,25,13,48,13.40
2017,04,25,13,49,13.50
2017,04,25,13,50,13.70
2017,04,25,13,51,13.80
2017,04,25,13,52,13.90
2017,04,25,13,53,14.00
2017,04,25,13,54,14.10
2017,04,25,13,55,14.10
2017,04,25,13,56,14.00
2017,04,25,13,57,13.90
2017,04,25,13,58,13.90
2017,04,25,13,59,13.80
2017,04,25,14,00,13.80
2017,04,25,14,01,13.70
2017,04,25,14,02,13.70
2017,04,25,14,03,13.60
2017,04,25,14,04,13.60
2017,04,25,14,05,13.60
2017,04,25,14,06,13.60
2017,04,25,14,07,13.50
2017,04,25,14,08,13.50
2017,04,25,14,09,13.60
2017,04,25,14,10,13.60
2017,04,25,14,11,13.60
2017,04,25,14,12,13.60
2017,04,25,14,13,13.50
2017,04,25,14,14,13.50
2017,04,25,14,15,13.50
2017,04,25,14,16,13.50
2017,04,25,14,17,13.50
2017,04,25,14,18,13.50
2017,04,25,14,19,13.50
2017,04,25,14,20,13.40
2017,04,25,14,21,13.40
2017,04,25,14,22,13.40
2017,04,25,14,23,13.40
2017,04,25,14,24,13.40
2017,04,25,14,25,13.40
2017,04,25,14,26,13.30
2017,04,25,14,27,13.30
2017,04,25,14,28,13.30
2017,04,25,14,29,13.30
2017,04,25,14,30,13.30
2017,04,25,14,31,13.30
2017,04,25,14,32,13.30
2017,04,25,14,33,13.30
2017,04,25,14,34,13.30
2017,04,25,14,35,13.30
2017,04,25,14,36,13.30
2017,04,25,14,37,13.30
2017,04,25,14,38,13.30
2017,04,25,14,39,13.30
2017,04,25,14,40,13.30
2017,04,25,14,41,13.30
2017,04,25,14,42,13.30
2017,04,25,14,43,13.30
2017,04,25,14,44,13.30
2017,04,25,14,45,13.30
2017,04,25,14,46,13.30
2017,04,25,14,47,13.30
2017,04,25,14,48,13.30
2017,04,25,14,49,13.30
2017,04,25,14,50,13.30
2017,04,25,14,51,13.30
2017,04,25,14,52,13.30
2017,04,25,14,53,13.30
2017,04,25,14,54,13.40
2017,04,25,14,55,13.40
2017,04,25,14,56,13.40
2017,04,25,14,57,13.40
2017,04,25,14,58,13.40
2017,04,25,14,59,13.40
2017,04,25,15,00,13.50
2017,04,25,15,01,13.50
2017,04,25,15,02,13.50
2017,04,25,15,03,13.60
2017,04,25,15,04,13.60
2017,04,25,15,05,13.60
2017,04,25,15,06,13.60
2017,04,25,15,07,13.60
2017,04,25,15,08,13.60
2017,04,25,15,09,13.70
2017,04,25,15,10,13.70
2017,04,25,15,11,13.70
2017,04,25,15,12,13.70
2017,04,25,15,13,13.70
2017,04,25,15,14,13.80
2017,04,25,15,15,13.80
2017,04,25,15,16,13.80
2017,04,25,15,17,13.80
2017,04,25,15,18,13.80
2017,04,25,15,19,13.80
2017,04,25,15,20,13.80
2017,04,25,15,21,13.80
2017,04,25,15,22,13.80
2017,04,25,15,23,13.80
2017,04,25,15,24,13.80
2017,04,25,15,25,13.80
2017,04,25,15,26,13.80
2017,04,25,15,27,13.90
2017,04,25,15,28,13.80
2017,04,25,15,29,13.90
2017,04,25,15,30,13.90
2017,04,25,15,31,13.90
2017,04,25,15,32,13.90
2017,04,25,15,33,13.90
2017,04,25,15,34,13.90
2017,04,25,15,35,13.90
2017,04,25,15,36,13.90
2017,04,25,15,37,13.80
2017,04,25,15,38,13.80
2017,04,25,15,39,13.80
2017,04,25,15,40,13.80
2017,04,25,15,41,13.80
2017,04,25,15,42,13.80
2017,04,25,15,43,13.80
2017,04,25,15,44,13.80
2017,04,25,15,45,13.80
2017,04,25,15,46,13.80
2017,04,25,15,47,13.80
2017,04,25,15,48,13.80
2017,04,25,15,49,13.80
2017,04,25,15,50,13.80
2017,04,25,15,51,13.80
2017,04,25,15,52,13.90
2017,04,25,15,53,13.90
2017,04,25,15,54,14.00
2017,04,25,15,55,14.00
2017,04,25,15,56,14.10
2017,04,25,15,57,14.20
2017,04,25,15,58,14.20
2017,04,25,15,59,14.30
2017,04,25,16,00,14.30
2017,04,25,16,01,14.40
2017,04,25,16,02,14.50
2017,04,25,16,03,14.50
2017,04,25,16,04,14.50
2017,04,25,16,05,14.60
2017,04,25,16,06,14.60
2017,04,25,16,07,14.60
2017,04,25,16,08,14.60
2017,04,25,16,09,14.60
2017,04,25,16,10,14.60
2017,04,25,16,11,14.60
2017,04,25,16,12,14.60
2017,04,25,16,13,14.60
2017,04,25,16,14,14.50
2017,04,25,16,15,14.50
2017,04,25,16,16,14.50
2017,04,25,16,17,14.40
2017,04,25,16,18,14.40
2017,04,25,16,19,14.40
2017,04,25,16,20,14.40
2017,04,25,16,21,14.40
2017,04,25,16,22,14.40
2017,04,25,16,23,14.40
2017,04,25,16,24,14.40
2017,04,25,16,25,14.40
2017,04,25,16,26,14.30
2017,04,25,16,27,14.30
2017,04,25,16,28,14.30
2017,04,25,16,29,14.30
2017,04,25,16,30,14.30
2017,04,25,16,31,14.30
2017,04,25,16,32,14.30
2017,04,25,16,33,14.40
2017,04,25,16,34,14.40
2017,04,25,16,35,14.40
2017,04,25,16,36,14.40
2017,04,25,16,37,14.40
2017,04,25,16,38,14.40
2017,04,25,16,39,14.30
2017,04,25,16,40,14.30
2017,04,25,16,41,14.30
2017,04,25,16,42,14.20
2017,04,25,16,43,14.20
2017,04,25,16,44,14.20
2017,04,25,16,45,14.20
2017,04,25,16,46,14.20
2017,04,25,16,47,14.10
2017,04,25,16,48,14.10
2017,04,25,16,49,13.90
2017,04,25,16,50,13.90
2017,04,25,16,51,13.80
2017,04,25,16,52,13.80
2017,04,25,16,53,13.80
2017,04,25,16,54,13.90
2017,04,25,16,55,13.90
2017,04,25,16,56,13.90
2017,04,25,16,57,13.90
2017,04,25,16,58,13.90
2017,04,25,16,59,13.90
2017,04,25,17,00,13.90
2017,04,25,17,01,13.90
2017,04,25,17,02,13.90
2017,04,25,17,03,13.90
2017,04,25,17,04,13.80
2017,04,25,17,05,13.80
2017,04,25,17,06,13.80
2017,04,25,17,07,13.80
2017,04,25,17,08,13.70
2017,04,25,17,09,13.70
2017,04,25,17,10,13.60
2017,04,25,17,11,13.60
2017,04,25,17,12,13.50
2017,04,25,17,13,13.50
2017,04,25,17,14,13.40
2017,04,25,17,15,13.30
2017,04,25,17,16,13.20
2017,04,25,17,17,13.10
2017,04,25,17,18,13.00
2017,04,25,17,19,12.90
2017,04,25,17,20,12.80
2017,04,25,17,21,12.70
2017,04,25,17,22,12.70
2017,04,25,17,23,12.60
2017,04,25,17,24,12.60
2017,04,25,17,25,12.60
2017,04,25,17,26,12.60
2017,04,25,17,27,12.50
2017,04,25,17,28,12.50
2017,04,25,17,29,12.40
2017,04,25,17,30,12.40
2017,04,25,17,31,12.40
2017,04,25,17,32,12.40
2017,04,25,17,33,12.30
2017,04,25,17,34,12.30
2017,04,25,17,35,12.30
2017,04,25,17,36,12.30
2017,04,25,17,37,12.30